• In Uzbekistan
  • List of Countries
  • For 7 days
  • Water Temperature
  • Satellite Maps
  • Weather Map
  • Weather Widgets
  • user-avatar
    Login

    Hourly Weather Santiago del Estero

    Today, 27 February, Monday

    Time Temperature Precipitation Wind Pressure Humidity
    00:00 +29°C° 0 mm 3 mps 740 mmHg 61%
    01:00 +28°C° 0 mm 2 mps 740 mmHg 63%
    02:00 +28°C° 0 mm 2 mps 739 mmHg 66%
    03:00 +28°C° 0 mm 2 mps 739 mmHg 67%
    04:00 +27°C° 0 mm 2 mps 739 mmHg 69%
    05:00 +27°C° 0 mm 2 mps 739 mmHg 70%
    06:00 +28°C° 0.1 mm 2 mps 740 mmHg 67%
    07:00 +29°C° 0.1 mm 2 mps 740 mmHg 64%
    08:00 +30°C° 0.1 mm 2 mps 740 mmHg 61%
    09:00 +33°C° 0 mm 3 mps 740 mmHg 54%
    10:00 +35°C° 0 mm 3 mps 740 mmHg 48%
    11:00 +37°C° 0 mm 3 mps 740 mmHg 41%
    12:00 +38°C° 0.1 mm 3 mps 739 mmHg 39%
    13:00 +38°C° 0.1 mm 3 mps 739 mmHg 38%
    14:00 +39°C° 0.1 mm 3 mps 738 mmHg 36%
    15:00 +38°C° 0 mm 3 mps 738 mmHg 36%
    16:00 +38°C° 0 mm 3 mps 737 mmHg 37%
    17:00 +38°C° 0 mm 3 mps 737 mmHg 37%
    18:00 +37°C° 0 mm 3 mps 737 mmHg 41%
    19:00 +35°C° 0 mm 2 mps 737 mmHg 45%
    20:00 +34°C° 0 mm 2 mps 738 mmHg 49%
    21:00 +32°C° 0.7 mm 2 mps 738 mmHg 54%
    22:00 +31°C° 0.7 mm 2 mps 739 mmHg 60%
    23:00 +30°C° 0.7 mm 2 mps 739 mmHg 65%

    Tomorrow, 28 February, Tuesday

    Time Temperature Precipitation Wind Pressure Humidity
    00:00 +29°C° 0.2 mm 2 mps 739 mmHg 69%
    01:00 +29°C° 0.2 mm 2 mps 739 mmHg 73%
    02:00 +28°C° 0.2 mm 3 mps 739 mmHg 76%
    03:00 +28°C° 0.3 mm 2 mps 739 mmHg 78%
    04:00 +27°C° 0.3 mm 2 mps 739 mmHg 79%
    05:00 +27°C° 0.3 mm 2 mps 739 mmHg 81%
    06:00 +28°C° 0.1 mm 2 mps 739 mmHg 80%
    07:00 +28°C° 0.1 mm 2 mps 739 mmHg 79%
    08:00 +28°C° 0.1 mm 3 mps 740 mmHg 78%
    09:00 +30°C° 0.1 mm 3 mps 740 mmHg 70%
    10:00 +31°C° 0.1 mm 3 mps 740 mmHg 63%
    11:00 +34°C° 0.1 mm 3 mps 740 mmHg 56%
    12:00 +35°C° 0 mm 3 mps 739 mmHg 50%
    13:00 +37°C° 0 mm 3 mps 738 mmHg 44%
    14:00 +38°C° 0 mm 3 mps 737 mmHg 38%
    15:00 +38°C° 0 mm 3 mps 736 mmHg 37%
    16:00 +38°C° 0 mm 4 mps 736 mmHg 37%
    17:00 +38°C° 0 mm 4 mps 735 mmHg 37%
    18:00 +35°C° 0 mm 4 mps 735 mmHg 43%
    19:00 +33°C° 0 mm 4 mps 736 mmHg 49%
    20:00 +30°C° 0 mm 4 mps 736 mmHg 54%
    21:00 +29°C° 0 mm 3 mps 736 mmHg 58%
    22:00 +29°C° 0 mm 3 mps 736 mmHg 62%
    23:00 +28°C° 0 mm 2 mps 737 mmHg 66%

    Day after tomorrow, 1 March, Wednesday

    Time Temperature Precipitation Wind Pressure Humidity
    00:00 +28°C° 0 mm 2 mps 736 mmHg 68%
    01:00 +27°C° 0 mm 2 mps 736 mmHg 70%
    02:00 +27°C° 0 mm 2 mps 736 mmHg 72%
    03:00 +27°C° 0 mm 2 mps 736 mmHg 74%
    04:00 +27°C° 0 mm 2 mps 736 mmHg 75%
    05:00 +26°C° 0 mm 2 mps 735 mmHg 77%
    06:00 +27°C° 0 mm 3 mps 736 mmHg 74%
    07:00 +28°C° 0 mm 3 mps 736 mmHg 71%
    08:00 +29°C° 0 mm 3 mps 737 mmHg 68%
    09:00 +33°C° 0 mm 3 mps 737 mmHg 59%
    10:00 +35°C° 0 mm 3 mps 737 mmHg 51%
    11:00 +37°C° 0 mm 3 mps 737 mmHg 42%
    12:00 +38°C° 0 mm 3 mps 736 mmHg 38%
    13:00 +39°C° 0 mm 3 mps 735 mmHg 35%
    14:00 +40°C° 0 mm 2 mps 734 mmHg 31%
    15:00 +40°C° 0 mm 3 mps 734 mmHg 31%
    16:00 +41°C° 0 mm 4 mps 734 mmHg 31%
    17:00 +41°C° 0 mm 4 mps 733 mmHg 31%
    18:00 +38°C° 0 mm 4 mps 733 mmHg 37%
    19:00 +36°C° 0 mm 4 mps 734 mmHg 43%
    20:00 +34°C° 0 mm 4 mps 734 mmHg 49%
    21:00 +33°C° 0 mm 4 mps 734 mmHg 52%
    22:00 +32°C° 0 mm 4 mps 735 mmHg 54%
    23:00 +32°C° 0 mm 4 mps 735 mmHg 57%

    2 March, Thursday

    Time Temperature Precipitation Wind Pressure Humidity
    00:00 +30°C° 0 mm 3 mps 735 mmHg 58%
    01:00 +30°C° 0 mm 3 mps 734 mmHg 60%
    02:00 +29°C° 0 mm 3 mps 734 mmHg 62%
    03:00 +29°C° 0 mm 3 mps 734 mmHg 63%
    04:00 +29°C° 0 mm 3 mps 734 mmHg 64%
    05:00 +28°C° 0 mm 4 mps 734 mmHg 66%
    06:00 +29°C° 0 mm 4 mps 734 mmHg 64%
    07:00 +30°C° 0 mm 5 mps 734 mmHg 62%
    08:00 +32°C° 0 mm 6 mps 735 mmHg 60%
    09:00 +34°C° 0 mm 6 mps 735 mmHg 52%
    10:00 +38°C° 0 mm 7 mps 735 mmHg 45%
    11:00 +40°C° 0 mm 7 mps 734 mmHg 38%
    12:00 +41°C° 0 mm 7 mps 734 mmHg 36%
    13:00 +43°C° 0 mm 7 mps 733 mmHg 33%
    14:00 +44°C° 0 mm 7 mps 732 mmHg 31%
    15:00 +43°C° 0 mm 7 mps 732 mmHg 32%
    16:00 +42°C° 0 mm 6 mps 732 mmHg 32%
    17:00 +42°C° 0 mm 6 mps 731 mmHg 33%
    18:00 +40°C° 0 mm 5 mps 732 mmHg 37%
    19:00 +37°C° 0 mm 5 mps 732 mmHg 42%
    20:00 +35°C° 0 mm 4 mps 733 mmHg 46%
    21:00 +34°C° 0 mm 4 mps 733 mmHg 49%
    22:00 +34°C° 0 mm 3 mps 734 mmHg 53%
    23:00 +33°C° 0 mm 3 mps 734 mmHg 56%

    3 March, Friday

    Time Temperature Precipitation Wind Pressure Humidity
    00:00 +30°C° 1.8 mm 4 mps 734 mmHg 64%
    01:00 +29°C° 1.8 mm 4 mps 735 mmHg 73%
    02:00 +27°C° 1.8 mm 5 mps 735 mmHg 82%
    03:00 +26°C° 1.9 mm 5 mps 736 mmHg 85%
    04:00 +24°C° 1.9 mm 6 mps 736 mmHg 88%
    05:00 +23°C° 1.9 mm 7 mps 737 mmHg 91%
    06:00 +23°C° 1.3 mm 7 mps 738 mmHg 91%
    07:00 +22°C° 1.3 mm 7 mps 739 mmHg 91%
    08:00 +22°C° 1.3 mm 7 mps 740 mmHg 91%
    09:00 +21°C° 1.6 mm 7 mps 741 mmHg 90%
    10:00 +21°C° 1.6 mm 7 mps 741 mmHg 90%
    11:00 +21°C° 1.6 mm 7 mps 742 mmHg 89%
    12:00 +21°C° 0.7 mm 6 mps 742 mmHg 86%
    13:00 +21°C° 0.7 mm 6 mps 742 mmHg 83%
    14:00 +21°C° 0.7 mm 6 mps 742 mmHg 80%
    15:00 +22°C° 0.1 mm 6 mps 741 mmHg 74%
    16:00 +23°C° 0.1 mm 5 mps 741 mmHg 68%
    17:00 +23°C° 0.1 mm 5 mps 741 mmHg 63%
    18:00 +23°C° 0 mm 4 mps 741 mmHg 63%
    19:00 +22°C° 0 mm 3 mps 741 mmHg 63%
    20:00 +23°C° 0 mm 2 mps 742 mmHg 63%
    21:00 +21°C° 0 mm 2 mps 742 mmHg 62%
    22:00 +21°C° 0 mm 2 mps 742 mmHg 62%
    23:00 +21°C° 0 mm 3 mps 742 mmHg 61%

    4 March, Saturday

    Time Temperature Precipitation Wind Pressure Humidity
    00:00 +21°C° 0 mm 3 mps 742 mmHg 61%
    01:00 +20°C° 0 mm 3 mps 741 mmHg 60%
    02:00 +20°C° 0 mm 3 mps 741 mmHg 60%
    03:00 +20°C° 0 mm 3 mps 741 mmHg 60%
    04:00 +19°C° 0 mm 3 mps 741 mmHg 59%
    05:00 +19°C° 0 mm 3 mps 740 mmHg 59%
    06:00 +20°C° 0 mm 3 mps 741 mmHg 55%
    07:00 +21°C° 0 mm 3 mps 741 mmHg 52%
    08:00 +22°C° 0 mm 3 mps 742 mmHg 48%
    09:00 +25°C° 0 mm 3 mps 742 mmHg 47%
    10:00 +27°C° 0 mm 3 mps 741 mmHg 45%
    11:00 +28°C° 0 mm 3 mps 741 mmHg 44%
    12:00 +30°C° 0 mm 3 mps 741 mmHg 41%
    13:00 +31°C° 0 mm 3 mps 740 mmHg 39%
    14:00 +33°C° 0 mm 3 mps 739 mmHg 36%
    15:00 +33°C° 0 mm 3 mps 738 mmHg 38%
    16:00 +33°C° 0 mm 3 mps 738 mmHg 40%
    17:00 +33°C° 0 mm 3 mps 738 mmHg 42%
    18:00 +30°C° 0 mm 3 mps 738 mmHg 52%
    19:00 +28°C° 0 mm 3 mps 738 mmHg 62%
    20:00 +26°C° 0 mm 3 mps 738 mmHg 71%
    21:00 +25°C° 0 mm 3 mps 739 mmHg 75%
    22:00 +24°C° 0 mm 2 mps 739 mmHg 79%
    23:00 +24°C° 0 mm 2 mps 739 mmHg 83%
    Show more